When you browse on this site, cookies collect data to enhance your experience and personalize the content and advertising you see.
Visit our Privacy Policy to learn more. By continuing to use the site, you agree to this use of cookies and data.
  • en Suisse
  • Liste des pays
  • À 7 jours
  • Température de l'eau
  • Carte météo
  • Widgets météo
  • user-avatar
    Se connecter

    Météo par heure à Maidstone

    Ce jour, 6 Juin, Samedi

    Heure Température Précipitation Vent Pression Humidité
    00:00 +7°C° 0 mm 4 m/s 746 mmHg 78%
    01:00 +6°C° 0 mm 4 m/s 746 mmHg 80%
    02:00 +6°C° 0 mm 5 m/s 746 mmHg 81%
    03:00 +5°C° 0 mm 5 m/s 747 mmHg 83%
    04:00 +5°C° 0 mm 6 m/s 747 mmHg 78%
    05:00 +5°C° 0 mm 7 m/s 747 mmHg 73%
    06:00 +6°C° 0 mm 8 m/s 747 mmHg 69%
    07:00 +7°C° 0 mm 8 m/s 747 mmHg 64%
    08:00 +10°C° 0 mm 9 m/s 747 mmHg 59%
    09:00 +11°C° 0 mm 9 m/s 747 mmHg 54%
    10:00 +11°C° 0 mm 9 m/s 747 mmHg 57%
    11:00 +11°C° 0 mm 9 m/s 747 mmHg 59%
    12:00 +11°C° 0 mm 9 m/s 747 mmHg 62%
    13:00 +10°C° 0.6 mm 9 m/s 747 mmHg 72%
    14:00 +9°C° 0.6 mm 8 m/s 747 mmHg 81%
    15:00 +9°C° 0.6 mm 8 m/s 747 mmHg 91%
    16:00 +9°C° 0.3 mm 8 m/s 747 mmHg 89%
    17:00 +10°C° 0.3 mm 7 m/s 747 mmHg 87%
    18:00 +11°C° 0.3 mm 7 m/s 747 mmHg 85%
    19:00 +10°C° 0.2 mm 6 m/s 747 mmHg 86%
    20:00 +9°C° 0.2 mm 5 m/s 748 mmHg 88%
    21:00 +10°C° 0.2 mm 4 m/s 748 mmHg 89%
    22:00 +8°C° 0 mm 4 m/s 748 mmHg 88%
    23:00 +7°C° 0 mm 4 m/s 749 mmHg 88%

    Demain, 7 Juin, Dimanche

    Heure Température Précipitation Vent Pression Humidité
    00:00 +8°C° 0 mm 3 m/s 749 mmHg 87%
    01:00 +7°C° 0 mm 3 m/s 749 mmHg 88%
    02:00 +7°C° 0 mm 3 m/s 750 mmHg 89%
    03:00 +7°C° 0 mm 3 m/s 751 mmHg 89%
    04:00 +8°C° 0 mm 3 m/s 751 mmHg 89%
    05:00 +8°C° 0 mm 3 m/s 751 mmHg 89%
    06:00 +9°C° 0 mm 2 m/s 752 mmHg 89%
    07:00 +11°C° 0 mm 3 m/s 752 mmHg 81%
    08:00 +13°C° 0 mm 3 m/s 753 mmHg 72%
    09:00 +16°C° 0 mm 3 m/s 753 mmHg 64%
    10:00 +17°C° 0.1 mm 3 m/s 754 mmHg 61%
    11:00 +18°C° 0.1 mm 3 m/s 754 mmHg 58%
    12:00 +19°C° 0.1 mm 3 m/s 754 mmHg 55%
    13:00 +18°C° 0.5 mm 3 m/s 754 mmHg 61%
    14:00 +18°C° 0.5 mm 3 m/s 755 mmHg 66%
    15:00 +18°C° 0.5 mm 4 m/s 755 mmHg 71%
    16:00 +17°C° 0.5 mm 3 m/s 755 mmHg 76%
    17:00 +16°C° 0.5 mm 3 m/s 755 mmHg 81%
    18:00 +13°C° 0.5 mm 3 m/s 755 mmHg 86%
    19:00 +12°C° 0 mm 3 m/s 756 mmHg 88%
    20:00 +11°C° 0 mm 4 m/s 757 mmHg 90%
    21:00 +10°C° 0 mm 4 m/s 758 mmHg 91%
    22:00 +10°C° 0 mm 4 m/s 758 mmHg 92%
    23:00 +10°C° 0 mm 4 m/s 758 mmHg 92%

    Après-demain, 8 Juin, Lundi

    Heure Température Précipitation Vent Pression Humidité
    00:00 +10°C° 0 mm 4 m/s 758 mmHg 92%
    01:00 +10°C° 0 mm 4 m/s 758 mmHg 92%
    02:00 +10°C° 0 mm 4 m/s 759 mmHg 91%
    03:00 +10°C° 0 mm 4 m/s 759 mmHg 91%
    04:00 +10°C° 0 mm 4 m/s 759 mmHg 89%
    05:00 +10°C° 0 mm 5 m/s 759 mmHg 88%
    06:00 +10°C° 0 mm 5 m/s 760 mmHg 87%
    07:00 +12°C° 0 mm 5 m/s 760 mmHg 80%
    08:00 +13°C° 0 mm 5 m/s 761 mmHg 74%
    09:00 +14°C° 0 mm 5 m/s 761 mmHg 67%
    10:00 +14°C° 0 mm 5 m/s 761 mmHg 65%
    11:00 +15°C° 0 mm 5 m/s 761 mmHg 63%
    12:00 +15°C° 0 mm 4 m/s 762 mmHg 60%
    13:00 +15°C° 0.1 mm 4 m/s 762 mmHg 62%
    14:00 +15°C° 0.1 mm 5 m/s 762 mmHg 63%
    15:00 +14°C° 0.1 mm 5 m/s 762 mmHg 64%
    16:00 +14°C° 0 mm 5 m/s 762 mmHg 65%
    17:00 +14°C° 0 mm 5 m/s 762 mmHg 65%
    18:00 +13°C° 0 mm 5 m/s 762 mmHg 65%
    19:00 +12°C° 0 mm 4 m/s 763 mmHg 68%
    20:00 +11°C° 0 mm 4 m/s 763 mmHg 70%
    21:00 +10°C° 0 mm 4 m/s 763 mmHg 73%
    22:00 +9°C° 0 mm 3 m/s 764 mmHg 76%
    23:00 +8°C° 0 mm 3 m/s 764 mmHg 80%

    9 Juin, Mardi

    Heure Température Précipitation Vent Pression Humidité
    00:00 +8°C° 0 mm 3 m/s 764 mmHg 84%
    01:00 +7°C° 0 mm 3 m/s 764 mmHg 85%
    02:00 +7°C° 0 mm 3 m/s 764 mmHg 86%
    03:00 +7°C° 0 mm 3 m/s 764 mmHg 87%
    04:00 +7°C° 0 mm 3 m/s 764 mmHg 83%
    05:00 +7°C° 0 mm 4 m/s 764 mmHg 80%
    06:00 +8°C° 0 mm 4 m/s 764 mmHg 76%
    07:00 +10°C° 0 mm 4 m/s 764 mmHg 70%
    08:00 +11°C° 0 mm 4 m/s 764 mmHg 64%
    09:00 +13°C° 0 mm 4 m/s 765 mmHg 57%
    10:00 +13°C° 0 mm 4 m/s 765 mmHg 56%
    11:00 +14°C° 0 mm 4 m/s 765 mmHg 56%
    12:00 +14°C° 0 mm 3 m/s 764 mmHg 55%
    13:00 +14°C° 0 mm 3 m/s 764 mmHg 55%
    14:00 +14°C° 0 mm 3 m/s 764 mmHg 56%
    15:00 +14°C° 0 mm 3 m/s 764 mmHg 56%
    16:00 +14°C° 0 mm 3 m/s 764 mmHg 58%
    17:00 +14°C° 0 mm 3 m/s 764 mmHg 60%
    18:00 +14°C° 0 mm 2 m/s 764 mmHg 62%
    19:00 +13°C° 0 mm 2 m/s 764 mmHg 69%
    20:00 +11°C° 0 mm 1 m/s 765 mmHg 76%
    21:00 +9°C° 0 mm 1 m/s 765 mmHg 83%
    22:00 +9°C° 0 mm 1 m/s 765 mmHg 84%
    23:00 +8°C° 0 mm 1 m/s 765 mmHg 85%

    10 Juin, Mercredi

    Heure Température Précipitation Vent Pression Humidité
    00:00 +7°C° 0 mm 0 m/s 765 mmHg 86%
    01:00 +7°C° 0 mm 0 m/s 765 mmHg 86%
    02:00 +6°C° 0 mm 0 m/s 765 mmHg 86%
    03:00 +6°C° 0 mm 0 m/s 764 mmHg 87%
    04:00 +7°C° 0 mm 0 m/s 765 mmHg 84%
    05:00 +9°C° 0 mm 0 m/s 765 mmHg 81%
    06:00 +10°C° 0 mm 0 m/s 765 mmHg 79%
    07:00 +12°C° 0 mm 1 m/s 765 mmHg 72%
    08:00 +14°C° 0 mm 1 m/s 765 mmHg 66%
    09:00 +15°C° 0 mm 1 m/s 765 mmHg 60%
    10:00 +16°C° 0 mm 2 m/s 766 mmHg 57%
    11:00 +17°C° 0 mm 2 m/s 766 mmHg 54%
    12:00 +18°C° 0 mm 2 m/s 766 mmHg 51%
    13:00 +18°C° 0 mm 2 m/s 765 mmHg 52%
    14:00 +19°C° 0 mm 2 m/s 765 mmHg 52%
    15:00 +19°C° 0 mm 3 m/s 765 mmHg 53%
    16:00 +18°C° 0 mm 2 m/s 765 mmHg 57%
    17:00 +17°C° 0 mm 2 m/s 765 mmHg 62%
    18:00 +17°C° 0 mm 2 m/s 765 mmHg 67%
    19:00 +15°C° 0 mm 2 m/s 766 mmHg 73%
    20:00 +13°C° 0 mm 1 m/s 766 mmHg 79%
    21:00 +12°C° 0 mm 1 m/s 766 mmHg 86%
    22:00 +11°C° 0 mm 1 m/s 766 mmHg 86%
    23:00 +11°C° 0 mm 1 m/s 766 mmHg 86%

    11 Juin, Jeudi

    Heure Température Précipitation Vent Pression Humidité
    00:00 +9°C° 0 mm 0 m/s 766 mmHg 86%
    01:00 +9°C° 0 mm 0 m/s 766 mmHg 85%
    02:00 +9°C° 0 mm 0 m/s 766 mmHg 85%
    03:00 +9°C° 0 mm 0 m/s 765 mmHg 84%
    04:00 +10°C° 0 mm 0 m/s 765 mmHg 81%
    05:00 +11°C° 0 mm 0 m/s 766 mmHg 78%
    06:00 +14°C° 0 mm 1 m/s 766 mmHg 75%
    07:00 +15°C° 0 mm 1 m/s 765 mmHg 71%
    08:00 +16°C° 0 mm 2 m/s 765 mmHg 67%
    09:00 +18°C° 0 mm 2 m/s 765 mmHg 62%
    10:00 +19°C° 0 mm 2 m/s 765 mmHg 60%
    11:00 +19°C° 0 mm 3 m/s 765 mmHg 59%
    12:00 +20°C° 0 mm 3 m/s 765 mmHg 57%
    13:00 +20°C° 0 mm 3 m/s 764 mmHg 56%
    14:00 +20°C° 0 mm 3 m/s 764 mmHg 55%
    15:00 +20°C° 0 mm 4 m/s 763 mmHg 55%
    16:00 +19°C° 0 mm 3 m/s 763 mmHg 57%
    17:00 +18°C° 0 mm 3 m/s 763 mmHg 60%
    18:00 +17°C° 0 mm 3 m/s 763 mmHg 63%
    19:00 +14°C° 0 mm 3 m/s 763 mmHg 70%
    20:00 +13°C° 0 mm 3 m/s 763 mmHg 78%
    21:00 +11°C° 0 mm 3 m/s 763 mmHg 85%
    22:00 +11°C° 0 mm 3 m/s 762 mmHg 87%
    23:00 +10°C° 0 mm 2 m/s 762 mmHg 89%
    Voir plus